Wind_Speed
16 15 14 13 13 12 12 12 11 11 11 10 9 9 8 8 7 7 7 7 7 7 7 6 6 6 5 5 5 6 7 7 7 8 8 8 7 7 7 7 7 7 7
17 17 16 15 15 14 14 13 12 12 12 12 11 11 10 9 9 9 8 8 8 8 8 9 8 8 7 7 7 7 7 8 9 9 9 9 9 9 9 9 9 9 9
19 18 17 17 16 16 15 15 14 14 13 13 13 12 12 11 11 10 10 10 10 10 10 10 10 10 10 9 9 9 9 9 10 10 10 10 10 11 11 11 11 11 11
21 20 19 18 18 17 17 17 16 15 15 15 14 14 13 13 12 12 12 11 11 11 11 11 12 12 12 12 12 11 11 11 11 12 12 12 12 12 12 13 13 13 13
22 21 21 20 19 19 19 18 18 17 17 16 16 16 15 15 14 14 13 13 13 13 12 13 13 13 14 14 13 13 13 13 13 13 13 14 14 14 14 14 15 15 15
23 23 22 22 21 21 20 20 20 19 19 18 18 17 17 16 16 16 16 15 15 15 15 14 14 15 15 15 15 15 15 15 15 15 15 16 16 16 16 16 16 16 17
25 24 24 23 23 23 22 22 22 21 21 20 20 20 19 19 18 18 18 18 18 18 18 17 17 16 17 17 17 17 17 17 17 17 17 17 18 18 18 18 18 18 19
27 26 26 26 25 25 25 24 23 23 23 23 22 22 22 22 21 21 21 21 20 20 20 20 20 19 19 19 19 19 19 19 19 19 19 19 19 19 20 20 20 20 20
29 28 27 27 27 27 26 26 26 25 25 25 25 25 25 24 24 23 23 23 23 23 22 22 22 22 22 21 21 21 21 21 22 22 22 21 21 21 21 21 22 22 22
30 30 29 29 29 29 28 28 28 28 27 27 27 27 27 27 26 26 25 25 25 24 25 25 24 24 24 24 23 23 22 23 23 23 24 24 24 24 23 23 23 24 24
31 31 31 30 30 30 29 29 29 29 29 29 29 29 29 29 28 28 28 28 27 27 27 27 27 26 26 27 26 26 25 25 25 25 25 25 26 26 26 26 26 26 26
31 31 31 30 30 30 30 30 30 30 30 29 30 30 30 31 30 30 30 30 30 30 29 29 29 29 29 29 29 28 28 28 28 28 27 27 27 27 27 27 27 28 28
31 32 32 32 32 32 31 32 31 31 31 31 31 31 31 31 32 32 31 32 32 31 31 31 31 31 31 31 31 30 30 30 30 30 30 29 29 29 29 29 29 29 29
33 33 33 33 33 33 33 33 34 33 33 33 33 33 33 33 33 33 33 34 34 34 33 33 33 33 33 33 33 33 32 32 32 32 32 32 31 31 31 31 31 31 31
34 34 35 34 34 34 34 35 35 35 34 34 34 35 35 34 34 35 35 35 35 35 35 35 35 35 35 35 35 35 35 34 34 34 34 34 34 34 33 33 33 33 33
34 34 35 35 35 35 35 35 35 35 35 35 36 36 36 36 35 36 36 36 36 37 37 37 37 38 38 38 37 37 37 37 37 36 36 36 36 36 36 36 36 35 35
34 34 34 35 35 36 36 36 36 37 37 37 38 38 38 38 38 38 38 38 38 38 39 39 39 39 39 40 40 40 40 39 39 39 39 39 39 39 39 38 38 38 38
33 34 34 35 36 36 36 37 37 38 38 39 40 40 40 40 41 41 41 40 40 40 40 41 41 41 41 42 42 42 42 42 42 41 41 40 40 40 40 40 40 40 40
33 33 34 35 36 36 37 38 39 40 40 41 41 41 41 42 42 42 42 42 42 42 43 43 44 43 43 43 43 43 44 44 44 43 43 43 43 42 42 42 42 42 42
33 33 34 35 36 37 38 39 40 41 42 42 42 42 42 42 43 43 44 44 44 43 44 45 45 44 45 45 46 46 46 46 45 45 45 45 45 44 44 44 43 43 43
35 35 35 36 37 37 38 39 40 41 42 43 43 43 43 44 44 44 44 44 45 45 45 45 46 46 46 46 47 48 48 47 46 46 47 46 46 45 44 44 44 44 43
34 35 35 36 36 37 37 38 39 40 41 42 42 43 43 44 45 45 45 45 45 45 46 47 47 47 48 48 48 49 49 48 48 48 47 46 46 46 45 44 44 43 42
33 34 34 35 35 35 36 37 38 39 39 40 41 42 43 43 43 43 43 45 46 46 46 47 48 49 49 49 48 49 49 49 49 48 48 47 46 46 46 47 46 45 44
33 33 33 34 34 34 35 36 36 37 38 38 39 39 40 41 41 41 42 43 44 45 45 46 46 47 48 48 48 47 47 48 48 48 48 48 47 47 47 47 47 47 46
32 33 33 33 33 33 34 35 36 36 37 37 37 37 38 39 39 40 40 41 42 42 43 44 45 45 45 46 47 47 47 48 48 48 48 49 49 49 49 49 50 49 49
31 31 32 33 33 33 33 34 34 35 36 36 37 37 38 38 38 39 40 40 40 41 41 42 42 43 43 44 45 46 47 48 48 49 49 49 50 50 50 50 51 50 50
Wind_Direction
234 236 238 238 239 242 244 245 247 248 250 252 253 252 252 252 253 252 252 252 252 251 250 250 250 251 251 253 254 252 247 245 246 246 246 248 250 255 259 263 266 270 275
235 237 238 240 241 242 245 247 249 250 251 253 254 255 255 255 255 256 257 257 256 256 255 255 255 254 255 256 257 258 255 250 249 250 251 252 253 256 258 260 263 267 271
237 239 240 241 243 244 245 247 250 251 253 254 256 257 258 258 257 258 260 262 262 262 261 260 259 258 257 257 258 259 259 256 254 253 254 256 258 259 259 260 263 266 269
238 240 242 244 245 246 247 248 250 251 252 255 257 258 259 259 260 260 261 263 264 265 264 263 261 260 260 260 259 260 261 260 258 257 256 257 260 262 262 263 265 266 269
239 241 243 245 246 247 248 250 251 252 253 254 256 257 258 259 261 261 261 262 263 264 265 264 263 262 261 262 262 262 262 262 260 260 260 260 261 262 264 266 268 269 270
241 243 244 246 248 249 250 251 253 254 255 256 257 257 257 258 260 261 261 261 262 263 265 266 266 265 264 263 263 264 264 263 262 262 262 262 262 263 264 266 268 270 272
243 245 246 248 249 250 251 252 254 255 257 257 258 259 259 260 261 262 262 263 263 263 264 266 267 266 265 265 265 265 266 265 265 264 263 264 265 265 265 266 268 270 272
244 245 247 249 250 252 253 254 255 256 257 259 260 260 261 262 262 263 263 263 264 265 265 264 265 266 266 267 267 266 266 266 266 266 266 266 267 267 267 268 269 271 272
244 246 248 249 251 253 254 256 257 258 259 259 260 260 260 261 262 262 263 263 264 264 265 265 265 266 267 267 267 267 267 266 266 267 266 266 267 268 270 270 270 271 272
246 247 249 250 252 254 255 256 258 259 260 260 260 261 261 261 261 262 262 263 263 263 264 264 264 265 266 267 267 267 267 268 268 267 267 267 267 268 270 271 272 272 272
246 248 249 251 253 254 256 257 258 259 260 261 261 261 261 261 261 262 263 263 263 264 264 265 264 265 266 266 267 267 267 268 268 268 267 268 268 269 270 271 271 273 273
246 248 250 251 252 254 256 257 258 259 260 261 261 261 262 262 262 263 263 264 264 264 264 265 265 265 265 266 266 267 267 267 267 267 267 268 269 269 270 270 272 273 273
246 248 250 252 253 255 256 258 259 259 260 261 261 262 262 262 262 263 263 263 264 264 265 264 265 265 266 266 267 267 267 267 267 267 267 267 268 268 269 270 272 273 274
248 249 251 253 254 256 257 258 260 260 260 260 261 261 262 262 262 262 263 263 264 264 265 265 265 266 267 267 266 267 267 267 267 267 267 267 267 268 269 270 272 274 274
250 251 253 254 255 256 257 259 260 261 261 261 261 262 262 262 263 264 264 264 264 265 265 265 265 265 266 266 267 267 267 267 267 267 267 267 267 268 269 271 273 274 275
251 252 253 254 255 256 257 258 259 261 261 262 262 264 264 263 264 265 265 265 265 265 265 265 265 266 266 266 266 267 268 268 268 267 267 268 268 268 269 271 272 274 275
252 253 254 255 256 257 258 259 260 261 262 263 264 264 265 266 266 265 265 266 266 265 265 266 266 266 266 266 266 267 267 268 268 268 268 268 268 269 270 271 272 273 274
253 254 255 255 256 257 259 259 260 261 263 264 265 265 265 266 267 267 266 266 266 266 267 267 267 266 266 266 266 267 267 268 268 267 268 268 269 269 270 271 271 272 273
256 256 257 257 258 259 260 261 262 263 264 265 265 265 266 266 267 266 266 266 266 267 268 268 268 267 267 266 266 266 267 268 267 267 267 268 269 269 270 272 272 272 273
258 259 260 260 260 261 262 263 264 265 265 266 266 267 266 267 266 267 267 267 267 267 268 269 268 268 268 267 267 267 267 267 267 267 267 268 269 269 270 272 272 272 273
260 260 261 262 263 264 265 265 266 267 267 267 267 266 266 266 266 267 267 267 268 268 268 268 269 269 268 268 268 267 266 266 267 268 268 268 268 269 271 271 272 272 273
261 261 262 263 264 265 266 267 268 268 268 268 267 267 267 267 267 266 267 267 267 267 267 267 268 269 269 269 269 268 266 266 266 267 267 267 268 268 268 270 271 272 272
261 262 263 265 266 266 267 268 268 269 270 269 268 268 267 267 267 267 267 267 268 267 268 268 268 268 269 269 269 269 267 265 265 265 266 267 268 268 268 269 270 271 271
262 263 265 267 268 269 269 270 270 271 271 271 271 270 269 268 268 267 267 268 268 269 268 269 269 269 268 267 267 268 268 267 265 263 264 265 267 268 268 267 269 269 270
263 263 265 268 269 270 271 273 273 272 272 271 271 271 270 270 269 269 269 270 270 270 270 271 271 270 269 268 266 266 267 267 266 265 264 265 267 268 268 268 269 269 270
265 264 265 267 268 269 271 274 275 274 273 272 272 271 271 271 271 272 272 272 273 272 272 272 271 271 270 269 268 266 266 266 265 266 267 267 268 268 268 268 269 268 269
Height
5871 5872 5873 5874 5875 5875 5876 5876 5877 5878 5878 5878 5879 5879 5879 5879 5879 5879 5879 5878 5878 5878 5878 5878 5878 5878 5878 5877 5877 5877 5877 5877 5876 5876 5876 5876 5876 5876 5876 5875 5875 5875 5875
5868 5869 5870 5872 5873 5873 5874 5875 5875 5876 5876 5877 5877 5877 5877 5877 5877 5877 5877 5877 5877 5877 5877 5877 5876 5876 5876 5876 5876 5876 5875 5875 5875 5875 5875 5874 5874 5874 5874 5874 5874 5873 5873
5865 5866 5868 5869 5870 5871 5872 5872 5873 5874 5874 5875 5875 5875 5876 5876 5876 5876 5876 5876 5876 5875 5875 5875 5875 5875 5874 5874 5874 5874 5874 5873 5873 5873 5873 5873 5872 5872 5872 5872 5871 5871 5871
5862 5863 5865 5866 5867 5868 5869 5870 5871 5871 5872 5872 5873 5873 5873 5874 5874 5874 5874 5874 5874 5874 5873 5873 5873 5873 5872 5872 5872 5872 5872 5872 5871 5871 5871 5871 5870 5870 5870 5870 5869 5869 5868
5858 5860 5861 5863 5864 5865 5866 5867 5868 5869 5869 5870 5870 5870 5871 5871 5871 5871 5872 5872 5871 5871 5871 5871 5871 5870 5870 5870 5870 5870 5870 5869 5869 5869 5868 5868 5868 5868 5867 5867 5867 5866 5866
5854 5856 5858 5859 5861 5862 5863 5864 5865 5865 5866 5866 5867 5867 5868 5868 5868 5869 5869 5869 5869 5869 5869 5868 5868 5868 5868 5867 5867 5867 5867 5867 5866 5866 5866 5865 5865 5865 5864 5864 5864 5863 5863
5850 5852 5854 5855 5857 5858 5859 5860 5861 5862 5863 5863 5863 5864 5864 5865 5865 5865 5866 5866 5866 5866 5866 5865 5865 5865 5865 5865 5864 5864 5864 5863 5863 5863 5862 5862 5862 5862 5861 5861 5861 5860 5860
5846 5848 5849 5851 5852 5854 5855 5856 5857 5858 5858 5859 5860 5860 5860 5861 5861 5862 5862 5862 5862 5862 5862 5862 5862 5862 5861 5861 5861 5860 5860 5860 5860 5859 5859 5859 5858 5858 5858 5857 5857 5857 5856
5841 5843 5845 5846 5847 5849 5850 5851 5852 5853 5854 5854 5855 5856 5856 5856 5857 5857 5857 5858 5858 5858 5858 5858 5858 5858 5857 5857 5857 5857 5856 5856 5856 5855 5855 5855 5855 5854 5854 5853 5853 5853 5852
5836 5838 5840 5841 5842 5844 5845 5846 5847 5848 5849 5849 5850 5850 5851 5851 5852 5852 5852 5853 5853 5853 5853 5853 5853 5853 5853 5853 5853 5852 5852 5851 5851 5851 5851 5850 5850 5850 5849 5849 5849 5848 5848
5831 5833 5835 5836 5837 5838 5839 5841 5841 5842 5843 5844 5844 5845 5845 5846 5846 5846 5847 5847 5848 5848 5848 5847 5847 5848 5848 5848 5847 5847 5847 5847 5846 5846 5846 5846 5845 5845 5845 5844 5844 5843 5842
5826 5827 5829 5830 5832 5833 5834 5835 5836 5836 5837 5838 5838 5839 5839 5839 5840 5840 5841 5841 5842 5842 5842 5842 5842 5841 5842 5842 5842 5841 5841 5841 5841 5841 5841 5840 5840 5839 5839 5839 5838 5838 5837
5820 5822 5823 5824 5826 5827 5828 5829 5829 5830 5831 5831 5832 5832 5833 5833 5833 5834 5834 5835 5835 5836 5836 5836 5835 5835 5835 5836 5836 5836 5835 5835 5835 5835 5835 5834 5834 5834 5833 5833 5832 5832 5831
5814 5815 5817 5818 5819 5821 5822 5823 5823 5824 5824 5825 5825 5826 5826 5826 5826 5827 5827 5828 5828 5829 5829 5829 5829 5829 5829 5829 5829 5829 5829 5829 5828 5828 5828 5828 5828 5827 5827 5827 5826 5826 5825
5807 5809 5810 5812 5813 5814 5815 5816 5816 5817 5817 5818 5818 5818 5819 5819 5820 5820 5820 5820 5821 5821 5822 5822 5822 5822 5822 5822 5822 5822 5822 5822 5821 5821 5821 5821 5821 5821 5820 5820 5819 5819 5818
5801 5802 5803 5805 5806 5807 5808 5809 5809 5810 5810 5811 5811 5811 5811 5811 5812 5813 5812 5813 5813 5813 5813 5814 5814 5814 5814 5814 5814 5814 5814 5814 5814 5814 5814 5813 5813 5813 5813 5813 5812 5812 5811
5794 5795 5796 5797 5798 5800 5801 5801 5802 5802 5803 5803 5803 5803 5803 5803 5804 5804 5805 5804 5805 5804 5805 5805 5806 5806 5805 5806 5806 5805 5805 5805 5805 5805 5805 5805 5805 5805 5805 5805 5804 5804 5803
5787 5789 5790 5790 5791 5792 5793 5794 5794 5794 5795 5795 5795 5795 5795 5795 5795 5795 5796 5796 5796 5796 5796 5796 5797 5797 5797 5797 5797 5796 5796 5796 5797 5797 5796 5796 5796 5796 5796 5796 5795 5795 5795
5781 5782 5783 5783 5784 5785 5785 5786 5786 5786 5786 5786 5786 5786 5786 5786 5786 5786 5786 5787 5787 5787 5787 5787 5787 5787 5787 5787 5787 5787 5787 5787 5787 5787 5787 5787 5787 5787 5787 5787 5786 5785 5785
5774 5775 5775 5776 5776 5777 5777 5777 5778 5778 5777 5777 5777 5777 5777 5777 5777 5776 5777 5777 5777 5777 5777 5777 5776 5776 5776 5776 5776 5776 5776 5776 5776 5776 5776 5777 5777 5777 5777 5777 5776 5776 5775
5767 5767 5768 5768 5768 5769 5769 5769 5769 5768 5768 5767 5767 5767 5767 5767 5766 5766 5766 5766 5766 5766 5766 5766 5765 5765 5765 5765 5764 5765 5765 5765 5765 5766 5766 5766 5766 5766 5766 5766 5766 5766 5765
5760 5760 5760 5760 5760 5760 5760 5760 5759 5759 5758 5757 5757 5756 5756 5756 5756 5756 5756 5756 5755 5755 5755 5754 5754 5754 5753 5753 5753 5752 5753 5754 5754 5755 5755 5755 5755 5755 5756 5755 5755 5755 5755
5752 5753 5753 5753 5752 5752 5752 5751 5750 5749 5749 5748 5747 5746 5746 5745 5745 5745 5745 5745 5744 5744 5743 5743 5742 5741 5741 5740 5740 5739 5740 5742 5743 5744 5744 5744 5744 5744 5744 5745 5744 5744 5744
5745 5745 5745 5745 5745 5744 5743 5743 5742 5741 5740 5738 5737 5736 5736 5735 5735 5735 5734 5734 5733 5732 5732 5731 5730 5729 5728 5728 5728 5727 5728 5728 5730 5731 5733 5733 5733 5733 5733 5733 5733 5733 5733
5738 5738 5737 5737 5737 5736 5735 5735 5733 5732 5731 5729 5728 5727 5726 5725 5725 5725 5724 5724 5723 5722 5721 5720 5719 5718 5717 5717 5717 5717 5717 5717 5717 5719 5721 5721 5721 5721 5721 5721 5721 5721 5721
5731 5730 5730 5730 5729 5728 5728 5726 5725 5723 5722 5720 5719 5718 5717 5717 5716 5715 5714 5714 5713 5712 5711 5710 5709 5708 5707 5706 5706 5706 5706 5706 5707 5707 5708 5709 5709 5709 5708 5708 5708 5709 5708